Regional Weather Roundup
Issued by NWS

Home | Current Version | Previous Version | Text Only | Print | Product List | Glossary Off
Versions: 1 2 3 4 5 6 7 8 9 10 11 12 13 14 15 16 17 18 19 20 21 22 23 24 25 26 27 28 29 30 31 32 33 34 35 36 37 38 39 40 41 42 43 44 45 46 47 48 49 50

000
ASUS43 KOAX 262310
RWRNE

WEATHER ROUNDUP FOR NEBRASKA
NATIONAL WEATHER SERVICE OMAHA NE
600 PM CDT THU MAR 26 2015

NOTES: SATELLITE DATA IS BEING USED TO AUGMENT CLOUD COVER ABOVE
       12000 FEET.
       "FAIR" INDICATES FEW OR NO CLOUDS BELOW 12,000 FEET WITH NO
       SIGNIFICANT WEATHER AND/OR OBSTRUCTIONS TO VISIBILITY.

  * THESE STATIONS DO NOT REPORT WEATHER SUCH AS RAIN...SNOW OR FOG.

NEZ001>004-019>022-054>056-270000-
NEBRASKA PANHANDLE

CITY           SKY/WX    TMP DP  RH WIND       PRES   REMARKS
SCOTTSBLUFF    CLOUDY    53  33  46 N22G28    30.11S
ALLIANCE       LGT RAIN  47  38  71 N13       30.10R
CHADRON        CLOUDY    49  30  48 NE12      30.12R
KIMBALL        PTSUNNY   54  25  32 N18       30.10F
SIDNEY         PTSUNNY   53  29  39 NW25G32   30.11S
$$

NEZ057>060-069>072-079>082-270000-
SOUTHWEST NEBRASKA

CITY           SKY/WX    TMP DP  RH WIND       PRES   REMARKS
NORTH PLATTE   CLOUDY    55  27  34 N21G33    30.05R
IMPERIAL         N/A     57  29  34 NW26G37   30.08R
LEXINGTON      PTSUNNY   56  30  36 N23G37    30.04R
MCCOOK         CLOUDY    60  23  24 N30G36    30.03R
OGALLALA       CLOUDY    55  29  35 NW18G28   30.07S
$$

NEZ005>010-023>029-035>040-094-270000-
NORTH CENTRAL NEBRASKA

CITY           SKY/WX    TMP DP  RH WIND       PRES   REMARKS
VALENTINE      CLOUDY    36  29  75 NE14      30.16R WCI  27
AINSWORTH      CLOUDY    36  30  79 NE12      30.15R WCI  28
BROKEN BOW     CLOUDY    52  29  41 N20G28    30.04R
O`NEILL        CLOUDY    34  32  94 NE13      30.16R WCI  25
ORD            PTSUNNY   37  29  72 NE17G26   30.10R WCI  27
THEDFORD       PTSUNNY   46  31  55 N18G26    30.10R
$$

NEZ041-046>049-061>064-073>077-083>087-270000-
SOUTH CENTRAL NEBRASKA

CITY           SKY/WX    TMP DP  RH WIND       PRES   REMARKS
GRAND ISLAND   CLOUDY    46  31  55 NE16      30.06R
AURORA         CLOUDY    42  35  74 NE20      30.07R
HASTINGS       CLOUDY    52  30  43 NE9       30.00S
HEBRON         CLOUDY    51  27  39 E6        30.03F
HOLDREGE       PTSUNNY   57  27  31 N24G36    30.01R
KEARNEY *      PTSUNNY   55  30  38 NW21G31   30.01R
YORK           CLOUDY    37  36  93 NE17      30.09R WCI  28
$$

NEZ011>018-030>034-042>045-270000-
NORTHEAST NEBRASKA

CITY           SKY/WX    TMP DP  RH WIND       PRES   REMARKS
NORFOLK        LGT SNOW  33  31  92 N13G22    30.14R FOG     WCI  24
ALBION         DRIZZLE   34  31  90 NE10G18   30.12R WCI  26
BLAIR          LGT RAIN  37  32  82 NW7       30.14R WCI  32
COLUMBUS *     CLOUDY    34  27  75 NE10      30.15S WCI  26
FREMONT        LGT RAIN  37  35  94 N6        30.16R WCI  32
TEKAMAH        FLURRIES  37  31  78 N15G25    30.16R WCI  28
WAYNE          CLOUDY    35  32  88 N8        30.16S WCI  28
$$

NEZ050>053-065>068-078-088>093-270000-
SOUTHEAST NEBRASKA

CITY           SKY/WX    TMP DP  RH WIND       PRES   REMARKS
LINCOLN        LGT RAIN  37  34  89 N15       30.14R FOG     WCI  28
OMAHA EPPLEY   LGT RAIN  38  31  76 N14       30.15R WCI  30
BEATRICE       RAIN      42  35  74 N8        30.10R
FALLS CITY     CLOUDY    49  26  41 N6        30.07S
NEBRASKA CITY  CLOUDY    44  26  47 N13G18    30.10R
PLATTSMOUTH    RAIN      41  28  60 NW17      30.12R
$$

NEZ044-045-051>053-067-270000-
OMAHA AREA

CITY           SKY/WX    TMP DP  RH WIND       PRES   REMARKS
OMAHA EPPLEY   LGT RAIN  38  31  76 N14       30.15R WCI  30
BLAIR          LGT RAIN  37  32  82 NW7       30.14R WCI  32
FREMONT        LGT RAIN  37  35  94 N6        30.16R WCI  32
MILLARD        LGT RAIN  38  33  82 NW6       30.15R WCI  34
OFFUTT AFB     LGT RAIN  39  32  75 N13G20    30.14R WCI  32
PLATTSMOUTH    RAIN      41  28  60 NW17      30.12R
WAHOO          LGT SNOW  33  32  93 N8        30.15R WCI  27
$$


USA.gov is the U.S. government's official web portal to all federal, state and local government web resources and services.